This demonstration page uses our WeatherBlox Daily Observations layout. Learn more.

Hourly Observations for November 17, 2020

Temp ( °F °C ) Dew Point ( °F °C ) Humidity (%) Winds ( mph kmh ) Pressure ( in mb ) Visibility ( mi km ) Precip ( " mm )
12:15 am 00:15 Clear 41 5 23 -5 49 49 Calm 30.08 1019 10 16.0934 0 0
12:35 am 00:35 Clear 37 3 28 -2 70 70 W 5 7 30.09 1019 10 16.0934 0 0
12:55 am 00:55 Clear 39 4 25 -4 56 56 WSW 3 6 30.09 1019 10 16.0934 0 0
1:15 am 01:15 Clear 36 2 27 -3 70 70 SW 3 6 30.08 1019 10 16.0934 0 0
1:35 am 01:35 Clear 36 2 28 -2 75 75 SW 5 7 30.07 1018 10 16.0934 0 0
1:55 am 01:55 Clear 34 1 30 -1 87 87 WSW 5 7 30.07 1018 10 16.0934 0 0
2:15 am 02:15 Clear 36 2 28 -2 75 75 SW 5 7 30.07 1018 10 16.0934 0 0
2:35 am 02:35 Clear 34 1 28 -2 81 81 WSW 5 7 30.06 1018 10 16.0934 0 0
2:55 am 02:55 Clear 34 1 28 -2 81 81 SW 5 7 30.05 1018 10 16.0934 0 0
3:15 am 03:15 Clear 34 1 28 -2 81 81 SSW 6 9 30.04 1017 10 16.0934 0 0
3:35 am 03:35 Clear 32 0 28 -2 87 87 WSW 5 7 30.03 1017 10 16.0934 0 0
3:55 am 03:55 Clear 36 2 28 -2 75 75 Calm 30.03 1017 10 16.0934 0 0
4:15 am 04:15 Clear 37 3 27 -3 65 65 S 5 7 30.02 1016 10 16.0934 0 0
4:35 am 04:35 Partly Cloudy 39 4 25 -4 56 56 S 7 11 30.02 1016 10 16.0934 0 0
4:55 am 04:55 Partly Cloudy 37 3 27 -3 65 65 SSW 7 11 30.02 1016 10 16.0934 0 0
5:15 am 05:15 Clear 36 2 27 -3 70 70 SSW 5 7 30.01 1016 10 16.0934 0 0
5:35 am 05:35 Clear 36 2 27 -3 70 70 SW 7 11 30.01 1016 10 16.0934 0 0
5:55 am 05:55 Clear 34 1 28 -2 81 81 SSW 5 7 30 1016 10 16.0934 0 0
6:15 am 06:15 Clear 34 1 28 -2 81 81 S 5 7 30 1016 10 16.0934 0 0
6:35 am 06:35 Clear 32 0 28 -2 87 87 SSW 7 11 29.99 1016 10 16.0934 0 0
6:55 am 06:55 Clear 32 0 28 -2 87 87 SW 6 9 29.99 1016 10 16.0934 0 0
7:15 am 07:15 Sunny 34 1 28 -2 81 81 WSW 5 7 29.99 1016 10 16.0934 0 0
7:35 am 07:35 Sunny 36 2 28 -2 75 75 W 6 9 30 1016 10 16.0934 0 0
11:55 am 11:55 undefined 52 11 34 1 50 50 NW 24 39 30.05 1018 10 16.0934 0 0
12:15 pm 12:15 Cloudy 50 10 32 0 50 50 NNW 22 35 30.08 1018 10 16.0934 0 0
12:35 pm 12:35 Cloudy 46 8 32 0 57 57 NW 24 39 30.09 1019 10 16.0934 0 0
12:55 pm 12:55 Mostly Cloudy 46 8 32 0 57 57 NNW 25 41 30.09 1019 10 16.0934 0 0
1:15 pm 13:15 Partly Cloudy 48 9 30 -1 50 50 NW 25 41 30.1 1019 10 16.0934 0 0
1:35 pm 13:35 Partly Cloudy 50 10 32 0 50 50 NW 25 41 30.1 1019 10 16.0934 0 0
1:55 pm 13:55 Partly Cloudy 50 10 30 -1 47 47 NW 21 33 30.11 1020 10 16.0934 0 0
2:15 pm 14:15 undefined 50 10 28 -2 43 43 WNW 23 37 30.11 1020 10 16.0934 0 0
2:35 pm 14:35 Partly Cloudy 48 9 28 -2 46 46 WNW 23 37 30.12 1020 10 16.0934 0 0

Powered by AerisWeather